Hourly Data Report for February 21, 2005

TORONTO CITY
ONTARIO

43°40'00.000" N
79°24'00.000" W
112.50 m
6158355
71508
XTO

Download Data

Hourly Data (February 2005)
Hourly Data Report for February 21, 2005
TIME
LST
Temp Definition
°C
Dew Point Definition
°C
Rel Hum Definition
%
Precip. Amount Definition
mm

Wind Dir Definition
10's deg

Wind Spd Definition
km/h
Visibility Definition
km
Stn Press Definition
kPa
Hmdx Definition


Wind Chill Definition


Weather Definition


00:00 -1.8 -1.9 99   LegendMM LegendMM   99.76     LegendNANA
01:00 -1.6 -1.7 99   LegendMM LegendMM   99.57     LegendNANA
02:00 -1.5 -1.6 99   LegendMM LegendMM   99.44     LegendNANA
03:00 -1.3 -1.3 100   LegendMM LegendMM   99.36     LegendNANA
04:00 -0.8 -0.8 100   LegendMM LegendMM   99.32     LegendNANA
05:00 -1.1 -1.1 100   LegendMM LegendMM   99.28     LegendNANA
06:00 -1.7 -1.7 100   LegendMM LegendMM   99.39     LegendNANA
07:00 -2.4 -2.5 99   LegendMM LegendMM   99.44     LegendNANA
08:00 -2.3 -2.6 98   LegendMM LegendMM   99.56     LegendNANA
09:00 -2.3 -2.6 98   LegendMM LegendMM   99.63     LegendNANA
10:00 -2.1 -2.6 96   LegendMM LegendMM   99.69     LegendNANA
11:00 -2.4 -2.9 96   LegendMM LegendMM   99.68     LegendNANA
12:00 -1.4 -1.8 97   LegendMM LegendMM   99.74     LegendNANA
13:00 -1.1 -1.7 96   LegendMM LegendMM   99.68     LegendNANA
14:00 0.0 -0.8 94   LegendMM LegendMM   99.71     LegendNANA
15:00 0.5 -0.2 95   LegendMM LegendMM   99.78     LegendNANA
16:00 0.5 0.1 97   LegendMM LegendMM   99.88     LegendNANA
17:00 1.2 0.7 96   LegendMM LegendMM   99.92     LegendNANA
18:00 1.2 0.8 97   LegendMM LegendMM   99.99     LegendNANA
19:00 0.9 0.0 94   LegendMM LegendMM   100.05     LegendNANA
20:00 0.8 -1.6 84   LegendMM LegendMM   100.10     LegendNANA
21:00 0.8 -2.1 81   LegendMM LegendMM   100.15     LegendNANA
22:00 0.9 -1.9 82   LegendMM LegendMM   100.18     LegendNANA
23:00 0.9 -1.7 83   LegendMM LegendMM   100.22     LegendNANA

Notes on Data Quality.

Legend

  • E = Estimated
  • M = Missing
  • NA = Not Available*
  • [empty] = Indicates an unobserved value
Date modified: